Location: Astronomy Club of Akron Observatory
(40.9700°N, 81.5606°W)
Time: 19:25:23
(UTC-04:00)

Daily predictions for brighter satellites

Satellite Brightness Start Highest point End
(mag) Time Altitude Azimuth Time Altitude Azimuth Time Altitude Azimuth
Cosmos 494 Rocket 4.5 21:14:08 10° SSE 21:18:48 38° ESE 21:23:31 10° NE
Cosmos 1743 2.9 21:16:07 10° N 21:19:55 56° E 21:23:40 10° SSE
SJ-11-01 4.3 21:23:13 10° SSE 21:27:50 67° ENE 21:32:29 10° N
Cosmos 1606 Rocket 3.6 21:25:02 10° N 21:29:31 82° E 21:33:55 10° S
Meteor 1-19 Rocket 4.2 21:26:20 10° S 21:31:57 78° E 21:37:33 10° NNE
CZ-4 DEB 4.4 21:32:19 10° SSW 21:35:17 33° W 21:38:16 10° NNW
H-2A R/B 2.0 21:32:17 10° SSE 21:36:29 79° ENE 21:40:49 10° N
Meteor 2-4 Rocket 3.9 21:31:48 10° S 21:37:33 64° E 21:43:25 10° NNE
Cosmos 1331 Rocket 4.0 21:33:37 10° NNW 21:38:51 72° ENE 21:44:00 10° SSE
CZ-2C R/B 1.4 21:36:53 10° S 21:39:07 45° W 21:41:23 10° NNW
Cosmos 2333 Rocket 3.5 21:36:31 10° SW 21:41:56 46° WNW 21:47:22 10° NNE
SPOT 5 3.1 21:38:18 11° SE 21:42:23 43° ENE 21:46:30 10° N
Cosmos 1626 Rocket 4.3 21:41:57 10° SSE 21:45:57 34° E 21:49:57 10° NNE
Cosmos 2297 3.8 21:40:15 10° NNW 21:45:59 89° ENE 21:51:37 10° SSE
Cosmos 1302 Rocket 4.4 21:42:10 10° N 21:47:16 50° ENE 21:51:34 14° SE
CZ-4 SHROUD 3.4 21:49:27 15° SSE 21:51:53 55° ENE 21:54:59 10° N
APEX 3.9 21:49:36 10° NNW 21:53:26 52° ENE 21:57:11 16° SE
Lacrosse 5 4.2 21:51:24 10° W 21:55:42 27° NNW 22:00:01 10° NNE
USA 186 4.5 21:55:03 10° SW 21:56:50 15° W 21:58:33 10° WNW
SeaSat 1 2.4 21:53:09 14° SSE 21:57:28 81° ENE 22:02:26 10° NNW
ATLAS CENTAUR R/B 3.1 21:53:00 10° SW 21:57:47 46° NW 22:02:39 10° NNE
CZ-4B R/B 3.9 21:55:01 10° NNE 21:59:47 41° E 22:04:21 12° SSE
Cosmos 2228 3.0 21:59:46 10° N 22:04:12 83° E 22:07:57 14° S
Cosmos 2251 Rocket 4.4 21:59:24 10° SW 22:04:35 53° WNW 22:09:50 10° N
BREEZE-M DEB (TANK) 2.4 22:10:10 10° WNW 22:12:33 41° SW 22:13:12 30° S
Tsikada Rocket 4.1 22:07:34 10° S 22:13:54 65° E 22:20:14 10° NNE
YAOGAN 6 3.0 22:13:00 25° SE 22:14:50 47° ENE 22:18:27 10° N
Terra 3.6 22:13:07 14° E 22:15:17 18° ENE 22:18:27 10° NNE
Atlas Centaur 2 3.8 22:09:12 10° SW 22:15:49 29° SSE 22:20:37 17° ESE
COSMOS 2455 3.3 22:13:24 10° S 22:18:53 38° ESE 22:24:23 10° NE
ATLAS 3B R/B 3.9 22:18:09 19° SE 22:21:15 25° ESE 22:27:09 10° ENE
Envisat 3.3 22:16:49 13° S 22:21:23 65° WSW 22:26:27 10° NNW
MetOp-A 4.1 22:17:22 18° SSE 22:21:25 84° ENE 22:26:48 10° NNW
Meteor 1-15 Rocket 4.5 22:16:07 10° NNW 22:21:40 69° W 22:26:46 13° S
Cosmos 1939 Rocket 4.1 22:19:35 10° S 22:23:31 41° W 22:27:28 10° NNW
Cosmos 2285 Rocket 4.4 22:17:59 10° NNW 22:24:10 59° WSW 22:29:40 14° S
SL-08 RB Rocket 4.4 22:23:10 25° ESE 22:25:18 40° ENE 22:29:33 10° N
GRACE-1 4.3 22:23:58 10° N 22:26:49 64° W 22:28:09 27° SSW
GRACE-2 4.3 22:24:24 10° N 22:27:16 64° W 22:28:35 27° SSW
Cosmos 2278 Rocket 4.3 22:23:57 10° NW 22:28:01 21° W 22:32:05 10° SSW
USA 234 3.3 22:27:51 23° SE 22:32:17 80° SW 22:38:54 10° NW
Lacrosse 5 rocket 3.6 22:38:06 10° W 22:41:26 26° NNW 22:44:55 10° NNE
Cosmos 2369 Rocket 3.1 22:38:25 10° N 22:43:39 37° ENE 22:46:13 25° ESE
Cosmos 1666 4.5 22:42:59 10° NNW 22:46:24 29° W 22:49:18 13° SSW
SL-16 R/B 3.9 22:42:17 10° WSW 22:47:23 34° WNW 22:52:31 10° N
SAR-Lupe-2 4.5 22:47:10 32° E 22:47:32 33° ENE 22:50:48 10° N
Abrixas rocket 2.4 22:45:12 10° WNW 22:48:35 57° SW 22:48:52 54° S
Lacrosse 4 Rocket 3.5 22:50:41 13° ENE 22:50:41 13° ENE 22:51:23 10° ENE
Aureole 2 Rocket 4.4 22:45:53 10° SW 22:49:30 33° WNW 22:52:51 10° N
ARGOS 3.1 22:48:12 30° SSE 22:51:01 88° ENE 22:56:29 10° NNW
H-2A R/B 2.5 22:50:29 32° ESE 22:52:09 43° ENE 22:56:52 10° N
NOAA 11 4.1 22:52:09 32° SSE 22:54:47 87° ENE 23:00:15 10° NNW
Cosmos 1825 Rocket 3.6 22:54:01 42° SSE 22:55:21 64° E 22:59:46 10° NNE
Cosmos 1634 Rocket 3.9 22:53:12 10° N 22:59:23 73° E 23:02:13 34° SSE
Cosmos 1812 Rocket 4.2 22:55:54 10° NNW 23:00:09 51° W 23:02:13 27° SSW
SPOT 1/Viking Rocket 3.9 22:57:45 26° S 23:00:32 59° W 23:05:39 10° NNW
Cosmos 1992 Rocket 4.0 22:56:31 10° NNW 23:01:46 71° ENE 23:03:30 42° SE
Cosmos 1461 3.4 22:58:33 10° NW 23:02:42 49° WSW 23:03:39 40° SSW
DMSP B5D2-2 4.4 23:00:51 10° NNE 23:05:57 47° E 23:07:02 41° SE
Cosmos 1346 Rocket 2.8 23:10:08 60° E 23:10:08 60° E 23:13:58 10° NNE
Cosmos 1066 Rocket 4.2 23:11:09 32° S 23:13:53 89° E 23:19:42 10° N
Cosmos 1515 4.5 23:13:48 32° SW 23:15:11 48° W 23:18:57 10° N
Geosat 4.2 23:10:37 10° NNE 23:15:38 69° WNW 23:19:56 14° SW
Cosmos 1190 Rocket 4.0 23:14:26 45° SSE 23:15:55 65° ESE 23:21:12 10° NNE
Cosmos 489 Rocket 4.5 23:20:42 40° SSE 23:22:54 63° ESE 23:29:11 10° NNE
Cosmos 2279 Rocket 4.0 23:20:07 10° N 23:26:22 70° E 23:28:18 45° SSE
Spot 4 3.8 23:27:26 60° SE 23:28:12 74° ENE 23:32:59 10° N
Meteor 1-21 4.2 23:26:42 48° SSE 23:28:16 69° E 23:34:03 10° NNE
Cosmos 1842 3.9 23:32:29 44° ENE 23:32:29 44° ENE 23:35:36 10° NNE
Cosmos 676 Rocket 4.1 23:31:29 52° ESE 23:31:53 54° ESE 23:37:05 10° NNE
Landsat 7 4.4 23:35:43 42° SW 23:36:49 51° W 23:41:28 10° NNW
Cosmos 1953 Rocket 4.0 23:38:28 45° SW 23:39:25 56° W 23:43:47 10° N
Cosmos 2180 Rocket 4.5 23:33:34 10° N 23:39:50 74° E 23:41:32 50° SSE
Cosmos 1943 3.3 23:39:29 30° SW 23:42:24 72° WNW 23:48:06 10° NNE
Cosmos 1140 Rocket 4.3 23:49:49 35° E 23:49:49 35° E 23:53:56 10° NE
Cosmos 1766 3.6 23:46:24 10° NNW 23:50:05 63° WNW 23:50:05 63° WNW
Terra 2.3 23:51:59 47° SW 23:52:37 50° W 23:57:16 10° NNW
